GW0442 Weather Reports


Display with metric or nautical units.
time (UTC)temp
F
wind
direction
speed
MPH
gust
MPH
rain 1hr
in
rain 24hr
in
rain mn
in
humidity
%
barometer
mb
20260510084541 51 195 3.0 9.0 0.00 0.00 0.00 90 1006.6
20260510083033 51 192 3.0 5.0 0.00 0.00 0.00 90 1006.7
20260510081544 52 219 4.0 11.0 0.00 0.00 0.00 90 1006.7
20260510080039 52 195 5.0 12.0 0.00 0.00 0.00 90 1006.9
20260510074537 52 229 6.0 14.0 0.00 0.00 0.00 88 1007.0
20260510073035 53 210 7.0 15.0 0.00 0.00 0.00 87 1006.9
20260510071539 52 245 6.0 14.0 0.00 0.00 0.00 87 1006.5
20260510070039 53 180 6.0 13.0 0.00 0.00 0.00 87 1006.5
20260510064538 53 202 8.0 16.0 0.00 0.00 0.00 85 1007.0
20260510063037 53 230 6.0 12.0 0.00 0.00 0.00 83 1006.8
20260510061531 54 181 8.0 14.0 0.00 0.00 0.00 83 1006.7
20260510060033 53 245 6.0 19.0 0.00 0.00 0.00 83 1006.6
20260510054532 53 239 7.0 14.0 0.00 0.00 0.00 82 1006.9
20260510053036 54 220 7.0 20.0 0.00 0.00 0.00 82 1006.9
20260510051532 53 224 8.0 17.0 0.00 0.00 0.00 82 1007.1
20260510050035 53 154 8.0 16.0 0.00 0.00 0.00 82 1006.8
20260510044535 53 257 7.0 14.0 0.00 0.00 0.00 82 1006.8
20260510043037 52 175 7.0 15.0 0.00 0.00 0.00 82 1006.7
20260510041535 52 219 5.0 8.0 0.00 0.00 0.00 83 1006.5
20260510040035 51 217 1.0 7.0 0.00 0.00 0.00 84 1006.0
20260510034541 52 202 1.0 7.0 0.00 0.00 0.00 82 1006.2
20260510033035 52 218 3.0 8.0 0.00 0.00 0.00 82 1006.7
20260510031537 52 193 2.0 5.0 0.00 0.00 0.00 82 1006.7
20260510030039 52 217 1.0 6.0 0.00 0.00 0.00 82 1006.8
20260510024538 52 217 4.0 9.0 0.00 0.00 0.00 81 1007.1
20260510023035 52 225 2.0 6.0 0.00 0.00 0.00 81 1007.2
20260510021538 52 133 1.0 6.0 0.00 0.00 0.00 81 1006.9
20260510020044 52 174 2.0 6.0 0.00 0.00 0.00 81 1007.1
20260510014541 51 0 2.0 6.0 0.00 0.00 0.00 81 1007.3
20260510013036 51 198 3.0 10.0 0.00 0.00 0.00 80 1007.1
20260510011541 52 214 2.0 6.0 0.00 0.00 0.00 80 1007.1
20260510010037 52 255 2.0 5.0 0.00 0.00 0.00 79 1007.4
20260510004539 52 165 1.0 6.0 0.00 0.00 0.00 79 1007.6
20260510003039 52 215 3.0 6.0 0.00 0.00 0.00 79 1007.8
20260510001537 52 0 2.0 6.0 0.00 0.00 0.00 79 1007.5
20260510000057 52 212 2.0 8.0 0.00 0.00 0.00 79 1007.5
20260509234547 52 219 4.0 9.0 0.00 0.00 0.00 79 1007.6
20260509233034 52 234 5.0 13.0 0.00 0.00 0.00 79 1007.5
20260509231534 53 139 4.0 12.0 0.00 0.00 0.00 77 1007.4
20260509230036 53 228 4.0 10.0 0.00 0.00 0.00 75 1007.5
20260509224532 54 205 6.0 13.0 0.00 0.00 0.00 75 1007.5
20260509223036 55 174 6.0 14.0 0.00 0.00 0.00 73 1007.5
20260509221535 54 248 5.0 11.0 0.00 0.00 0.00 74 1007.9
20260509220036 54 243 3.0 11.0 0.00 0.00 0.00 75 1007.6
20260509214534 54 224 8.0 16.0 0.00 0.00 0.00 74 1007.9
20260509213038 55 229 5.0 14.0 0.00 0.00 0.00 71 1007.8
20260509211534 57 229 4.0 14.0 0.00 0.00 0.00 69 1007.9
20260509210039 56 215 5.0 13.0 0.00 0.00 0.00 69 1008.1
20260509204541 55 179 5.0 12.0 0.00 0.00 0.00 69 1008.1
20260509203034 56 138 8.0 14.0 0.00 0.00 0.00 67 1008.3
20260509201539 59 214 7.0 15.0 0.00 0.00 0.00 64 1008.2
20260509200045 59 174 8.0 14.0 0.00 0.00 0.00 64 1008.2
20260509194539 58 193 7.0 16.0 0.00 0.00 0.00 62 1008.5
20260509193038 60 200 3.0 8.0 0.00 0.00 0.00 62 1008.6
20260509191534 59 176 5.0 18.0 0.00 0.00 0.00 59 1008.6
20260509190038 59 250 8.0 20.0 0.00 0.00 0.00 60 1008.7
20260509184554 59 202 10.0 17.0 0.00 0.00 0.00 58 1008.7
20260509183038 57 240 12.0 19.0 0.00 0.00 0.00 58 1008.9
20260509181546 58 230 10.0 20.0 0.00 0.00 0.00 55 1008.8
20260509180037 58 208 8.0 15.0 0.00 0.00 0.00 60 1009.0
20260509174537 57 266 10.0 14.0 0.00 0.00 0.00 59 1009.1
20260509173036 56 219 8.0 12.0 0.00 0.00 0.00 56 1009.3
20260509171537 57 260 9.0 14.0 0.00 0.00 0.00 55 1009.4
20260509170039 58 259 7.0 11.0 0.00 0.00 0.00 57 1009.4
20260509164531 59 255 6.0 14.0 0.00 0.00 0.00 53 1009.5
20260509163038 60 245 4.0 10.0 0.00 0.00 0.00 44 1009.6
20260509161534 60 229 3.0 10.0 0.00 0.00 0.00 42 1009.7
20260509160036 60 243 7.0 12.0 0.00 0.00 0.00 42 1010.0
20260509154541 60 243 6.0 12.0 0.00 0.00 0.00 42 1010.4
20260509153044 59 231 4.0 10.0 0.00 0.00 0.00 44 1010.7
20260509151538 59 203 5.0 12.0 0.00 0.00 0.00 40 1011.0
20260509150041 59 227 5.0 11.0 0.00 0.00 0.00 45 1011.1
20260509144549 58 242 6.0 9.0 0.00 0.00 0.00 48 1011.2
20260509143036 57 231 5.0 13.0 0.00 0.00 0.00 48 1011.2
20260509141534 57 204 6.0 12.0 0.00 0.00 0.00 46 1011.2
20260509140038 56 167 5.0 11.0 0.00 0.00 0.00 50 1011.2
20260509134559 55 231 7.0 13.0 0.00 0.00 0.00 49 1011.1
20260509133045 54 226 6.0 12.0 0.00 0.00 0.00 51 1011.2
20260509131538 54 236 8.0 13.0 0.00 0.00 0.00 51 1011.3
20260509130051 53 211 3.0 11.0 0.00 0.00 0.00 54 1011.4
20260509124535 52 238 3.0 9.0 0.00 0.00 0.00 57 1011.6
20260509123032 50 222 3.0 7.0 0.00 0.00 0.00 60 1011.6
20260509121553 49 200 1.0 5.0 0.00 0.00 0.00 60 1011.6
20260509120034 48 228 0.0 3.0 0.00 0.00 0.00 62 1011.5
20260509114537 46 234 0.0 4.0 0.00 0.00 0.00 63 1011.6
20260509113040 45 206 1.0 3.0 0.00 0.00 0.00 66 1011.7
20260509111554 43 98 1.0 3.0 0.00 0.00 0.00 69 1011.3
20260509110038 39 173 0.0 2.0 0.00 0.00 0.00 74 1011.6
20260509104543 37 0 0.0 2.0 0.00 0.00 0.00 79 1011.5
20260509103032 35 0 0.0 0.0 0.00 0.00 0.00 81 1011.4
20260509101548 34 0 0.0 0.0 0.00 0.00 0.00 83 1011.4
20260509100035 33 0 0.0 3.0 0.00 0.00 0.00 85 1011.3
20260509094540 32 0 0.0 0.0 0.00 0.00 0.00 84 1011.0
20260509093035 32 0 0.0 2.0 0.00 0.00 0.00 84 1011.1
20260509091542 34 243 1.0 2.0 0.00 0.00 0.00 79 1011.0
20260509090040 34 108 0.0 4.0 0.00 0.00 0.00 83 1010.9